W5LND-10 Weather Reports


Display with metric or nautical units.
time (UTC)temp
F
wind
direction
speed
MPH
gust
MPH
rain 1hr
in
rain 24hr
in
rain mn
in
humidity
%
barometer
mb
20260510130556 73 235 14.0 25.0 0.00 0.00 0.00 68 1004.1
20260510130056 73 240 14.0 21.0 0.00 0.00 0.00 68 1004.2
20260510125556 72 231 13.0 21.0 0.00 0.00 0.00 69 1004.0
20260510125056 72 244 14.0 22.0 0.00 0.00 0.00 69 1003.9
20260510124556 72 231 15.0 27.0 0.00 0.00 0.00 70 1003.9
20260510124056 72 243 15.0 27.0 0.00 0.00 0.00 70 1003.9
20260510123556 72 227 14.0 27.0 0.00 0.00 0.00 69 1004.0
20260510123056 72 245 14.0 23.0 0.00 0.00 0.00 69 1003.9
20260510122556 72 252 15.0 25.0 0.00 0.00 0.00 69 1003.8
20260510122056 72 275 16.0 25.0 0.00 0.00 0.00 69 1003.7
20260510121556 72 229 15.0 26.0 0.00 0.00 0.00 69 1003.6
20260510121056 72 259 14.0 25.0 0.00 0.00 0.00 69 1003.5
20260510120556 72 260 14.0 24.0 0.00 0.00 0.00 69 1003.3
20260510120056 72 252 13.0 26.0 0.00 0.00 0.00 69 1003.2
20260510115556 72 248 13.0 23.0 0.00 0.00 0.00 69 1003.2
20260510115056 72 252 13.0 24.0 0.00 0.00 0.00 68 1003.0
20260510114556 72 235 14.0 24.0 0.00 0.00 0.00 68 1002.9
20260510114056 72 235 14.0 26.0 0.00 0.00 0.00 68 1002.9
20260510113556 72 254 14.0 26.0 0.00 0.00 0.00 68 1002.9
20260510113056 72 251 14.0 22.0 0.00 0.00 0.00 67 1002.9
20260510112556 72 239 13.0 21.0 0.00 0.00 0.00 67 1002.8
20260510112056 72 241 13.0 22.0 0.00 0.00 0.00 67 1002.9
20260510111556 72 242 13.0 23.0 0.00 0.00 0.00 67 1002.9
20260510111056 72 248 13.0 23.0 0.00 0.00 0.00 67 1003.0
20260510110556 72 230 13.0 20.0 0.00 0.00 0.00 67 1002.9
20260510110056 72 248 14.0 22.0 0.00 0.00 0.00 67 1003.0
20260510105556 72 261 14.0 25.0 0.00 0.00 0.00 67 1002.9
20260510105056 72 238 15.0 22.0 0.00 0.00 0.00 67 1003.0
20260510104556 72 255 14.0 25.0 0.00 0.00 0.00 66 1003.0
20260510104056 72 249 15.0 23.0 0.00 0.00 0.00 66 1003.0
20260510103556 72 240 15.0 27.0 0.00 0.00 0.00 66 1003.1
20260510103056 72 257 15.0 25.0 0.00 0.00 0.00 66 1003.0
20260510102556 72 244 14.0 25.0 0.00 0.00 0.00 66 1002.9
20260510102056 72 244 14.0 20.0 0.00 0.00 0.00 66 1002.8
20260510101556 72 249 14.0 22.0 0.00 0.00 0.00 65 1003.0
20260510101056 72 249 13.0 20.0 0.00 0.00 0.00 65 1003.0
20260510100556 72 246 14.0 21.0 0.00 0.00 0.00 65 1002.9
20260510100056 72 237 15.0 21.0 0.00 0.00 0.00 65 1002.9
20260510095556 72 241 14.0 24.0 0.00 0.00 0.00 64 1003.0
20260510095056 73 248 12.0 24.0 0.00 0.00 0.00 63 1002.9
20260510094556 73 249 13.0 22.0 0.00 0.00 0.00 63 1002.9
20260510094056 73 232 13.0 21.0 0.00 0.00 0.00 63 1002.8
20260510093556 73 246 12.0 24.0 0.00 0.00 0.00 62 1002.7
20260510093056 73 243 12.0 23.0 0.00 0.00 0.00 61 1002.8
20260510092556 73 223 13.0 22.0 0.00 0.00 0.00 61 1002.8
20260510092056 73 238 14.0 24.0 0.00 0.00 0.00 60 1002.7
20260510091556 73 217 14.0 23.0 0.00 0.00 0.00 60 1002.8
20260510091056 74 236 13.0 20.0 0.00 0.00 0.00 59 1002.7
20260510090556 74 252 13.0 19.0 0.00 0.00 0.00 59 1002.7
20260510090056 74 230 13.0 30.0 0.00 0.00 0.00 59 1002.8
20260510085557 74 238 13.0 23.0 0.00 0.00 0.00 58 1002.7
20260510085057 74 240 12.0 21.0 0.00 0.00 0.00 58 1002.7
20260510084557 74 231 13.0 22.0 0.00 0.00 0.00 58 1002.8
20260510084057 74 248 13.0 24.0 0.00 0.00 0.00 58 1002.8
20260510083556 74 229 12.0 22.0 0.00 0.00 0.00 58 1002.9
20260510083057 74 254 12.0 22.0 0.00 0.00 0.00 58 1002.8
20260510082557 74 257 12.0 20.0 0.00 0.00 0.00 58 1002.8
20260510082057 74 257 12.0 19.0 0.00 0.00 0.00 58 1002.9
20260510081557 74 226 12.0 18.0 0.00 0.00 0.00 57 1002.9
20260510081057 75 267 12.0 23.0 0.00 0.00 0.00 57 1003.0
20260510080557 75 240 12.0 21.0 0.00 0.00 0.00 57 1003.0
20260510080057 75 252 13.0 22.0 0.00 0.00 0.00 57 1002.8
20260510075557 75 247 14.0 21.0 0.00 0.00 0.00 56 1002.8
20260510075057 75 225 14.0 23.0 0.00 0.00 0.00 56 1002.8
20260510074557 75 254 13.0 23.0 0.00 0.00 0.00 56 1002.9
20260510074057 75 248 13.0 22.0 0.00 0.00 0.00 55 1002.8
20260510073557 76 238 14.0 24.0 0.00 0.00 0.00 55 1002.9
20260510073057 76 247 14.0 22.0 0.00 0.00 0.00 54 1002.8
20260510072557 76 240 13.0 20.0 0.00 0.00 0.00 53 1003.0
20260510072057 76 261 13.0 23.0 0.00 0.00 0.00 53 1003.0
20260510071557 76 248 12.0 22.0 0.00 0.00 0.00 52 1002.9
20260510071057 77 239 12.0 19.0 0.00 0.00 0.00 52 1003.0
20260510070557 77 230 13.0 21.0 0.00 0.00 0.00 51 1002.9
20260510070057 77 249 13.0 22.0 0.00 0.00 0.00 51 1002.9
20260510065557 77 200 13.0 22.0 0.00 0.00 0.00 50 1002.9
20260510065057 78 259 14.0 22.0 0.00 0.00 0.00 50 1003.0
20260510064557 78 222 14.0 22.0 0.00 0.00 0.00 50 1003.0
20260510064057 78 247 13.0 21.0 0.00 0.00 0.00 49 1003.0
20260510063557 78 232 13.0 23.0 0.00 0.00 0.00 48 1002.9
20260510063057 78 261 13.0 18.0 0.00 0.00 0.00 47 1002.9
20260510062557 78 221 12.0 20.0 0.00 0.00 0.00 46 1003.0
20260510062057 78 226 12.0 19.0 0.00 0.00 0.00 46 1002.9
20260510061557 78 223 13.0 23.0 0.00 0.00 0.00 46 1002.9
20260510061057 78 238 14.0 23.0 0.00 0.00 0.00 45 1003.0
20260510060557 78 252 13.0 24.0 0.00 0.00 0.00 45 1003.0
20260510060057 78 226 12.0 20.0 0.00 0.00 0.00 46 1003.0
20260510055557 78 242 13.0 22.0 0.00 0.00 0.00 45 1003.0
20260510055057 79 229 14.0 24.0 0.00 0.00 0.00 45 1003.1
20260510054557 79 244 14.0 21.0 0.00 0.00 0.00 45 1003.0
20260510054057 79 183 13.0 22.0 0.00 0.00 0.00 45 1003.0
20260510053557 79 232 13.0 20.0 0.00 0.00 0.00 45 1003.1
20260510053057 79 237 13.0 19.0 0.00 0.00 0.00 44 1003.1
20260510052557 79 242 14.0 24.0 0.00 0.00 0.00 43 1003.2
20260510052057 79 193 14.0 22.0 0.00 0.00 0.00 42 1003.1
20260510051557 80 230 12.0 23.0 0.00 0.00 0.00 41 1003.0
20260510051057 80 234 12.0 23.0 0.00 0.00 0.00 40 1003.0
20260510050557 80 238 11.0 22.0 0.00 0.00 0.00 39 1003.0
20260510050057 80 210 11.0 19.0 0.00 0.00 0.00 39 1003.2
20260510045557 80 234 11.0 23.0 0.00 0.00 0.00 39 1003.2
20260510045057 81 227 10.0 15.0 0.00 0.00 0.00 38 1003.2
20260510044557 81 204 11.0 19.0 0.00 0.00 0.00 37 1003.2
20260510044057 81 201 10.0 22.0 0.00 0.00 0.00 36 1003.3
20260510043557 81 214 10.0 18.0 0.00 0.00 0.00 36 1003.4
20260510043057 82 229 10.0 19.0 0.00 0.00 0.00 35 1003.3
20260510042557 82 216 9.0 15.0 0.00 0.00 0.00 35 1003.4
20260510042057 82 211 11.0 17.0 0.00 0.00 0.00 35 1003.3
20260510041557 82 227 11.0 20.0 0.00 0.00 0.00 35 1003.3
20260510041057 82 250 11.0 20.0 0.00 0.00 0.00 35 1003.3
20260510040557 82 245 10.0 18.0 0.00 0.00 0.00 35 1003.3
20260510040057 82 240 10.0 18.0 0.00 0.00 0.00 35 1003.3
20260510035557 82 234 10.0 18.0 0.00 0.00 0.00 34 1003.3
20260510035057 82 227 10.0 16.0 0.00 0.00 0.00 34 1003.3
20260510034557 82 210 10.0 17.0 0.00 0.00 0.00 34 1003.3
20260510034057 83 205 10.0 18.0 0.00 0.00 0.00 33 1003.3
20260510033557 83 222 10.0 18.0 0.00 0.00 0.00 33 1003.3
20260510033057 83 240 10.0 18.0 0.00 0.00 0.00 33 1003.3
20260510032557 83 213 9.0 15.0 0.00 0.00 0.00 33 1003.2
20260510032057 83 247 9.0 17.0 0.00 0.00 0.00 32 1003.1
20260510031557 83 207 9.0 15.0 0.00 0.00 0.00 32 1003.1
20260510031057 83 211 8.0 17.0 0.00 0.00 0.00 31 1003.0
20260510030557 83 225 9.0 15.0 0.00 0.00 0.00 31 1003.0
20260510030057 84 205 9.0 17.0 0.00 0.00 0.00 31 1003.0
20260510025557 84 211 9.0 17.0 0.00 0.00 0.00 31 1003.0
20260510025057 84 204 9.0 17.0 0.00 0.00 0.00 31 1003.0
20260510024557 84 231 8.0 15.0 0.00 0.00 0.00 31 1002.8
20260510024057 85 192 8.0 17.0 0.00 0.00 0.00 30 1002.8
20260510023557 85 252 8.0 13.0 0.00 0.00 0.00 30 1002.8
20260510023058 85 212 8.0 13.0 0.00 0.00 0.00 29 1002.8
20260510022557 85 246 8.0 12.0 0.00 0.00 0.00 28 1002.7
20260510022057 85 190 7.0 14.0 0.00 0.00 0.00 28 1002.7
20260510021557 85 207 6.0 12.0 0.00 0.00 0.00 27 1002.6
20260510021057 86 224 6.0 9.0 0.00 0.00 0.00 27 1002.6
20260510020557 86 209 6.0 9.0 0.00 0.00 0.00 27 1002.5
20260510020057 86 207 6.0 12.0 0.00 0.00 0.00 27 1002.4
20260510015557 86 232 6.0 10.0 0.00 0.00 0.00 26 1002.5
20260510015057 87 224 5.0 9.0 0.00 0.00 0.00 25 1002.4
20260510014557 87 217 5.0 10.0 0.00 0.00 0.00 25 1002.5
20260510014057 87 219 5.0 10.0 0.00 0.00 0.00 24 1002.4
20260510013557 88 215 5.0 8.0 0.00 0.00 0.00 24 1002.4
20260510013057 88 231 5.0 10.0 0.00 0.00 0.00 24 1002.3
20260510012557 89 227 6.0 8.0 0.00 0.00 0.00 23 1002.3
20260510012057 89 215 7.0 10.0 0.00 0.00 0.00 23 1002.2
20260510011557 89 238 7.0 14.0 0.00 0.00 0.00 22 1002.1
20260510011057 89 241 7.0 12.0 0.00 0.00 0.00 23 1002.2
20260510010557 90 202 7.0 13.0 0.00 0.00 0.00 22 1002.2
20260510010057 90 211 8.0 14.0 0.00 0.00 0.00 22 1002.2
20260510005557 90 207 8.0 17.0 0.00 0.00 0.00 22 1002.2
20260510005057 91 198 9.0 15.0 0.00 0.00 0.00 22 1002.0
20260510004557 91 228 10.0 15.0 0.00 0.00 0.00 22 1002.2
20260510004057 91 232 7.0 14.0 0.00 0.00 0.00 21 1002.2
20260510003557 92 261 4.0 12.0 0.00 0.00 0.00 21 1002.2
20260510003058 92 257 5.0 9.0 0.00 0.00 0.00 22 1002.3
20260510002558 92 254 8.0 16.0 0.00 0.00 0.00 21 1002.2
20260510002058 92 253 7.0 13.0 0.00 0.00 0.00 21 1002.3
20260510001558 92 249 7.0 13.0 0.00 0.00 0.00 22 1002.2
20260510001058 93 219 6.0 12.0 0.00 0.00 0.00 22 1002.3
20260510000558 93 230 6.0 12.0 0.00 0.00 0.00 22 1002.3
20260510000058 93 255 6.0 10.0 0.00 0.00 0.00 22 1002.4
20260509235558 92 263 8.0 13.0 0.00 0.00 0.00 23 1002.4
20260509235058 93 221 7.0 17.0 0.00 0.00 0.00 23 1002.5
20260509234558 93 290 6.0 13.0 0.00 0.00 0.00 22 1002.4
20260509234058 93 252 7.0 11.0 0.00 0.00 0.00 22 1002.4
20260509233558 93 220 5.0 15.0 0.00 0.00 0.00 22 1002.4
20260509233058 93 245 5.0 8.0 0.00 0.00 0.00 24 1002.4
20260509232558 93 222 6.0 13.0 0.00 0.00 0.00 22 1002.5
20260509232058 94 248 7.0 10.0 0.00 0.00 0.00 23 1002.5
20260509231558 93 257 6.0 15.0 0.00 0.00 0.00 23 1002.6
20260509231058 93 244 6.0 9.0 0.00 0.00 0.00 22 1002.7
20260509230558 93 238 8.0 11.0 0.00 0.00 0.00 23 1002.7
20260509230058 94 236 7.0 14.0 0.00 0.00 0.00 22 1002.7
20260509225558 94 245 5.0 14.0 0.00 0.00 0.00 21 1002.7
20260509225058 94 232 5.0 13.0 0.00 0.00 0.00 21 1002.7
20260509224558 94 226 5.0 9.0 0.00 0.00 0.00 22 1002.8
20260509224058 94 271 7.0 13.0 0.00 0.00 0.00 22 1002.8
20260509223558 94 253 9.0 15.0 0.00 0.00 0.00 22 1002.9
20260509223058 94 249 7.0 18.0 0.00 0.00 0.00 22 1002.8
20260509222558 95 246 5.0 18.0 0.00 0.00 0.00 21 1002.7
20260509222058 94 198 6.0 11.0 0.00 0.00 0.00 22 1002.7
20260509221558 94 286 9.0 13.0 0.00 0.00 0.00 22 1002.9
20260509221058 94 227 9.0 19.0 0.00 0.00 0.00 23 1002.9
20260509220558 94 269 6.0 17.0 0.00 0.00 0.00 22 1003.0
20260509220058 94 231 7.0 12.0 0.00 0.00 0.00 23 1003.0
20260509215558 94 254 7.0 15.0 0.00 0.00 0.00 22 1003.1
20260509215058 95 249 4.0 16.0 0.00 0.00 0.00 22 1003.1
20260509214558 95 259 5.0 12.0 0.00 0.00 0.00 24 1003.0
20260509214058 94 256 8.0 13.0 0.00 0.00 0.00 23 1003.3
20260509213558 94 267 7.0 17.0 0.00 0.00 0.00 24 1003.3
20260509213058 94 267 5.0 9.0 0.00 0.00 0.00 24 1003.4
20260509212558 93 259 8.0 11.0 0.00 0.00 0.00 24 1003.5
20260509212058 94 275 8.0 15.0 0.00 0.00 0.00 24 1003.5
20260509211558 94 288 5.0 14.0 0.00 0.00 0.00 24 1003.5
20260509211058 95 283 5.0 10.0 0.00 0.00 0.00 24 1003.6
20260509210558 95 226 6.0 13.0 0.00 0.00 0.00 25 1003.7
20260509210058 95 255 5.0 10.0 0.00 0.00 0.00 23 1003.8
20260509205558 95 244 7.0 10.0 0.00 0.00 0.00 23 1003.9
20260509205113 94 293 7.0 16.0 0.00 0.00 0.00 23 1003.9
20260509204558 93 254 7.0 14.0 0.00 0.00 0.00 24 1004.1
20260509204058 93 207 8.0 15.0 0.00 0.00 0.00 24 1004.1
20260509203558 93 197 8.0 15.0 0.00 0.00 0.00 25 1004.1
20260509203058 93 251 7.0 17.0 0.00 0.00 0.00 24 1004.4
20260509202558 93 208 6.0 13.0 0.00 0.00 0.00 23 1004.4
20260509202058 93 193 7.0 13.0 0.00 0.00 0.00 22 1004.5
20260509201558 93 255 7.0 16.0 0.00 0.00 0.00 26 1004.6
20260509201058 93 213 6.0 18.0 0.00 0.00 0.00 26 1004.6
20260509200558 93 183 5.0 8.0 0.00 0.00 0.00 26 1004.8
20260509200058 93 239 6.0 13.0 0.00 0.00 0.00 27 1004.9
20260509195558 93 246 6.0 13.0 0.00 0.00 0.00 28 1005.0
20260509195058 92 224 6.0 13.0 0.00 0.00 0.00 27 1005.0
20260509194558 92 232 7.0 12.0 0.00 0.00 0.00 27 1005.2
20260509194058 92 211 6.0 14.0 0.00 0.00 0.00 29 1005.2
20260509193558 92 189 6.0 13.0 0.00 0.00 0.00 29 1005.2
20260509193058 92 228 6.0 11.0 0.00 0.00 0.00 28 1005.4
20260509192558 92 236 6.0 13.0 0.00 0.00 0.00 28 1005.4
20260509192058 91 232 7.0 13.0 0.00 0.00 0.00 27 1005.5
20260509191558 91 288 6.0 10.0 0.00 0.00 0.00 29 1005.4
20260509191058 91 266 7.0 14.0 0.00 0.00 0.00 29 1005.6
20260509190558 91 219 7.0 16.0 0.00 0.00 0.00 28 1005.6
20260509190058 91 238 7.0 12.0 0.00 0.00 0.00 30 1005.6
20260509185558 91 238 7.0 14.0 0.00 0.00 0.00 31 1005.6
20260509185058 91 256 6.0 11.0 0.00 0.00 0.00 32 1005.6
20260509184558 91 240 6.0 12.0 0.00 0.00 0.00 31 1005.8
20260509184058 91 242 5.0 14.0 0.00 0.00 0.00 33 1005.9
20260509183558 90 232 5.0 10.0 0.00 0.00 0.00 34 1006.0
20260509183058 90 252 6.0 12.0 0.00 0.00 0.00 34 1006.0
20260509182558 90 253 5.0 15.0 0.00 0.00 0.00 34 1006.1
20260509182058 90 259 5.0 9.0 0.00 0.00 0.00 34 1006.1
20260509181558 90 207 4.0 10.0 0.00 0.00 0.00 35 1006.2
20260509181058 90 190 5.0 7.0 0.00 0.00 0.00 34 1006.2
20260509180558 89 251 4.0 12.0 0.00 0.00 0.00 35 1006.4
20260509180058 89 175 5.0 8.0 0.00 0.00 0.00 36 1006.5
20260509175558 88 259 5.0 15.0 0.00 0.00 0.00 36 1006.6
20260509175058 88 207 5.0 11.0 0.00 0.00 0.00 36 1006.7
20260509174558 88 200 6.0 17.0 0.00 0.00 0.00 37 1006.8
20260509174058 87 271 6.0 11.0 0.00 0.00 0.00 37 1006.9
20260509173600 87 284 6.0 16.0 0.00 0.00 0.00 38 1006.9
20260509173058 87 304 6.0 12.0 0.00 0.00 0.00 39 1006.9
20260509172558 87 253 6.0 10.0 0.00 0.00 0.00 39 1007.0
20260509172058 87 244 5.0 12.0 0.00 0.00 0.00 39 1007.1
20260509171558 87 266 5.0 8.0 0.00 0.00 0.00 39 1007.2
20260509171058 86 225 6.0 12.0 0.00 0.00 0.00 40 1007.2
20260509170558 86 271 6.0 12.0 0.00 0.00 0.00 41 1007.2
20260509170058 86 280 5.0 9.0 0.00 0.00 0.00 43 1007.3
20260509165558 85 259 4.0 13.0 0.00 0.00 0.00 44 1007.4
20260509165058 84 290 5.0 9.0 0.00 0.00 0.00 45 1007.4
20260509164558 84 215 6.0 9.0 0.00 0.00 0.00 46 1007.5
20260509164058 84 275 5.0 10.0 0.00 0.00 0.00 46 1007.6
20260509163558 83 285 5.0 10.0 0.00 0.00 0.00 46 1007.7
20260509163058 84 294 5.0 10.0 0.00 0.00 0.00 47 1007.7
20260509162558 83 306 6.0 11.0 0.00 0.00 0.00 47 1007.7
20260509162058 83 254 6.0 13.0 0.00 0.00 0.00 48 1007.9
20260509161558 82 290 6.0 10.0 0.00 0.00 0.00 50 1007.8
20260509161058 81 299 7.0 13.0 0.00 0.00 0.00 51 1007.8
20260509160559 81 246 6.0 15.0 0.00 0.00 0.00 51 1007.8
20260509160059 81 234 7.0 11.0 0.00 0.00 0.00 53 1007.8
20260509155558 80 247 7.0 14.0 0.00 0.00 0.00 53 1007.9
20260509155059 80 238 6.0 13.0 0.00 0.00 0.00 53 1008.0
20260509154559 80 200 6.0 10.0 0.00 0.00 0.00 54 1008.0
20260509154059 80 240 7.0 11.0 0.00 0.00 0.00 55 1008.1
20260509153559 79 244 7.0 14.0 0.00 0.00 0.00 55 1008.1
20260509153059 78 290 7.0 15.0 0.00 0.00 0.00 57 1008.0
20260509152559 78 242 7.0 12.0 0.00 0.00 0.00 59 1008.1
20260509152059 77 246 6.0 14.0 0.00 0.00 0.00 59 1008.1
20260509151559 77 244 5.0 9.0 0.00 0.00 0.00 61 1008.1
20260509151059 76 232 5.0 9.0 0.00 0.00 0.00 61 1008.3
20260509150559 76 251 5.0 11.0 0.00 0.00 0.00 62 1008.3
20260509150059 76 256 5.0 9.0 0.00 0.00 0.00 63 1008.4
20260509145559 75 242 5.0 12.0 0.00 0.00 0.00 64 1008.4
20260509145059 75 242 5.0 10.0 0.00 0.00 0.00 66 1008.5
20260509144559 74 245 6.0 10.0 0.00 0.00 0.00 67 1008.4
20260509144059 73 238 6.0 11.0 0.00 0.00 0.00 68 1008.5
20260509143559 73 235 6.0 12.0 0.00 0.00 0.00 69 1008.5
20260509143101 72 225 6.0 11.0 0.00 0.00 0.00 72 1008.6
20260509142559 72 250 5.0 11.0 0.00 0.00 0.00 73 1008.7
20260509142059 72 241 6.0 8.0 0.00 0.00 0.00 74 1008.6
20260509141559 71 257 6.0 13.0 0.00 0.00 0.00 74 1008.7
20260509141059 71 236 5.0 12.0 0.00 0.00 0.00 76 1008.7
20260509140559 70 232 5.0 9.0 0.00 0.00 0.00 76 1008.7
20260509140059 70 230 6.0 9.0 0.00 0.00 0.00 76 1008.5
20260509135559 70 267 4.0 11.0 0.00 0.00 0.00 77 1008.7
20260509135059 70 265 3.0 7.0 0.00 0.00 0.00 78 1008.6
20260509134559 69 258 4.0 8.0 0.00 0.00 0.00 78 1008.6
20260509134059 69 233 3.0 8.0 0.00 0.00 0.00 78 1008.5
20260509133559 69 246 2.0 5.0 0.00 0.00 0.00 78 1008.6
20260509133059 68 205 2.0 4.0 0.00 0.00 0.00 78 1008.5
20260509132559 68 203 3.0 5.0 0.00 0.00 0.00 78 1008.5
20260509132059 68 202 3.0 7.0 0.00 0.00 0.00 79 1008.3
20260509131559 67 194 3.0 5.0 0.00 0.00 0.00 79 1008.3
20260509131100 67 219 3.0 5.0 0.00 0.00 0.00 79 1008.3